Weather History for Cullman, AL

Change the Weather History Date:

Thursday, February 14, 2013

  Actual Average (KHSV) Record (KHSV)
Temperature  
Mean Temperature 42 °F 45 °F  
Max Temperature 55 °F 56 °F 77 °F (1926)
Min Temperature 28 °F 35 °F 9 °F (1960)
Degree Days  
Heating Degree Days 24 20  
Month to date heating degree days 295  
Since 1 July heating degree days 2205  
Cooling Degree Days 0 0  
Month to date cooling degree days 0  
Year to date cooling degree days 0  
Moisture  
Dew Point 34 °F    
Average Humidity 76    
Maximum Humidity 99    
Minimum Humidity 48    
Precipitation  
Precipitation 0.00 in 0.17 in 1.49 in (1922)
Month to date precipitation 2.35  
Year to date precipitation 7.24  
Snow  
Snow 0.00 in - - ()
Month to date snowfall  
Since 1 July snowfall  
Snow Depth -    
Sea Level Pressure  
Sea Level Pressure 30.07 in    
Wind  
Wind Speed 2 mph (SW)    
Max Wind Speed 9 mph    
Max Gust Speed -    
Visibility 9 miles    
Events      
T = Trace of Precipitation, MM = Missing Value Source: NWS Daily Summary

Daily Weather History Graph

Daily Weather History Graph

Search for Another Location

Airport:

Trip Planner

Search our weather history database for the weather conditions in past years. The results will help you decide how hot, cold, wet, or windy it might be!

Date:

Astronomy

Feb. 14, 2013 Rise Set
Actual Time 6:33 AM CST 5:30 PM CST
Civil Twilight 6:07 AM CST 5:56 PM CST
Nautical Twilight 5:38 AM CST 6:25 PM CST
Astronomical Twilight 5:08 AM CST 6:54 PM CST
Moon 8:49 AM CST (2/14) 10:16 PM CST (2/14)
Length of Visible Light 11h 48m
Length of Day
10h 57m
Waxing Crescent, 22% of the Moon is Illuminated
Feb 14
Waxing Crescent
Feb 17
First Quarter
Feb 25
Full
Mar 4
Last Quarter
Mar 11
New

Hourly Weather History & Observations

Time (CST) Temp. Windchill Dew Point Humidity Pressure Visibility Wind Dir Wind Speed Gust Speed Precip Events Conditions
12:15 AM 38.5 °F - 35.4 °F 89% 30.05 in 10.0 mi Calm Calm - N/A   Overcast
12:35 AM 38.5 °F - 35.1 °F 87% 30.05 in 10.0 mi Calm Calm - N/A   Mostly Cloudy
12:55 AM 38.5 °F - 35.2 °F 88% 30.06 in 10.0 mi Calm Calm - N/A   Mostly Cloudy
1:15 AM 38.5 °F 36.1 °F 35.2 °F 88% 30.05 in 10.0 mi NW 3.5 mph - N/A   Overcast
1:35 AM 38.5 °F - 35.2 °F 88% 30.05 in 10.0 mi Calm Calm - N/A   Overcast
1:55 AM 38.5 °F 35.0 °F 34.9 °F 87% 30.05 in 10.0 mi WNW 4.6 mph - N/A   Overcast
2:15 AM 38.1 °F - 34.0 °F 85% 30.04 in 10.0 mi Calm Calm - N/A   Mostly Cloudy
2:35 AM 36.5 °F - 33.1 °F 87% 30.05 in 10.0 mi Calm Calm - N/A   Scattered Clouds
2:55 AM 34.3 °F - 32.2 °F 92% 30.04 in 7.0 mi Calm Calm - N/A   Clear
3:15 AM 32.9 °F - 32.0 °F 96% 30.04 in 7.0 mi Calm Calm - N/A   Clear
3:35 AM 32.4 °F - 31.6 °F 97% 30.04 in 7.0 mi Calm Calm - N/A   Clear
3:55 AM 31.6 °F - 30.9 °F 97% 30.04 in 7.0 mi Calm Calm - N/A   Clear
4:15 AM 30.9 °F - 30.2 °F 97% 30.04 in 4.0 mi Calm Calm - N/A   Clear
4:35 AM 30.6 °F - 30.0 °F 98% 30.04 in 5.0 mi Calm Calm - N/A   Clear
4:55 AM 30.2 °F - 29.7 °F 98% 30.04 in 5.0 mi Calm Calm - N/A   Clear
5:15 AM 29.7 °F - 29.1 °F 98% 30.06 in 5.0 mi Calm Calm - N/A   Clear
5:35 AM 30.0 °F - 29.3 °F 97% 30.07 in 3.0 mi Calm Calm - N/A   Clear
5:55 AM 29.5 °F - 28.9 °F 98% 30.07 in 4.0 mi Calm Calm - N/A   Clear
6:15 AM 29.1 °F - 28.4 °F 97% 30.07 in 4.0 mi Calm Calm - N/A   Clear
6:35 AM 28.6 °F - 28.0 °F 98% 30.08 in 3.0 mi Calm Calm - N/A   Clear
6:55 AM 28.9 °F - 28.6 °F 99% 30.10 in 3.0 mi Calm Calm - N/A   Clear
7:15 AM 29.8 °F - 29.3 °F 98% 30.10 in 2.5 mi Calm Calm - N/A   Clear
7:35 AM 31.6 °F - 31.1 °F 98% 30.10 in 2.5 mi Calm Calm - N/A   Clear
7:55 AM 34.2 °F - 32.9 °F 95% 30.10 in 4.0 mi Calm Calm - N/A   Clear
8:15 AM 37.6 °F 35.1 °F 34.7 °F 89% 30.09 in 5.0 mi WSW 3.5 mph - N/A   Clear
8:35 AM 39.9 °F 37.8 °F 35.8 °F 85% 30.09 in 7.0 mi West 3.5 mph - N/A   Clear
8:55 AM 41.9 °F - 35.6 °F 78% 30.08 in 10.0 mi Calm Calm - N/A   Clear
9:15 AM 43.7 °F - 36.3 °F 75% 30.08 in 10.0 mi Calm Calm - N/A   Clear
9:35 AM 45.3 °F 43.0 °F 36.7 °F 72% 30.08 in 10.0 mi WSW 4.6 mph - N/A   Clear
9:55 AM 45.7 °F 42.7 °F 36.3 °F 70% 30.09 in 10.0 mi WSW 5.8 mph - N/A   Clear
10:15 AM 46.4 °F 43.5 °F 36.7 °F 69% 30.10 in 10.0 mi WSW 5.8 mph - N/A   Clear
10:35 AM 46.9 °F - 36.5 °F 67% 30.11 in 10.0 mi SW 4.6 mph - N/A   Clear
10:55 AM 48.6 °F - 36.9 °F 64% 30.10 in 10.0 mi Calm Calm - N/A   Scattered Clouds
11:15 AM 50.0 °F - 37.0 °F 61% 30.10 in 10.0 mi SW 4.6 mph - N/A   Mostly Cloudy
11:35 AM 50.5 °F - 36.9 °F 59% 30.09 in 10.0 mi Calm Calm - N/A   Scattered Clouds
11:55 AM 50.5 °F - 35.8 °F 57% 30.08 in 10.0 mi SSW 5.8 mph - N/A   Scattered Clouds
12:15 PM 51.3 °F - 35.2 °F 54% 30.07 in 10.0 mi South 4.6 mph - N/A   Clear
12:35 PM 53.1 °F - 35.6 °F 52% 30.07 in 10.0 mi West 5.8 mph - N/A   Clear
12:55 PM 53.2 °F - 34.7 °F 49% 30.07 in 10.0 mi WSW 4.6 mph - N/A   Clear
1:15 PM 53.8 °F - 34.9 °F 49% 30.07 in 10.0 mi WSW 5.8 mph - N/A   Clear
1:35 PM 54.1 °F - 35.4 °F 49% 30.06 in 10.0 mi SW 9.2 mph - N/A   Scattered Clouds
1:55 PM 53.6 °F - 35.8 °F 51% 30.06 in 10.0 mi SSW 8.1 mph - N/A   Scattered Clouds
2:15 PM 54.3 °F - 37.0 °F 52% 30.06 in 10.0 mi SSE 5.8 mph - N/A   Scattered Clouds
2:35 PM 54.7 °F - 36.7 °F 51% 30.06 in 10.0 mi SW 6.9 mph - N/A   Clear
2:55 PM 55.0 °F - 36.3 °F 49% 30.06 in 10.0 mi SW 6.9 mph - N/A   Clear
3:15 PM 55.2 °F - 35.8 °F 48% 30.06 in 10.0 mi WSW 4.6 mph - N/A   Clear
3:35 PM 55.6 °F - 36.0 °F 48% 30.05 in 10.0 mi SSW 8.1 mph - N/A   Clear
3:55 PM 55.0 °F - 36.0 °F 49% 30.05 in 10.0 mi South 8.1 mph - N/A   Scattered Clouds
4:15 PM 55.0 °F - 36.1 °F 49% 30.05 in 10.0 mi SW 5.8 mph - N/A   Clear
4:35 PM 54.9 °F - 35.2 °F 48% 30.05 in 10.0 mi SW 4.6 mph - N/A   Clear
4:55 PM 54.1 °F - 35.4 °F 49% 30.05 in 10.0 mi SW 3.5 mph - N/A   Clear
5:15 PM 52.5 °F - 35.2 °F 52% 30.05 in 10.0 mi SSW 4.6 mph - N/A   Clear
5:35 PM 50.5 °F - 35.6 °F 57% 30.06 in 10.0 mi SSW 3.5 mph - N/A   Clear
5:55 PM 48.6 °F - 36.0 °F 62% 30.07 in 10.0 mi Calm Calm - N/A   Clear
6:15 PM 45.9 °F - 36.7 °F 70% 30.07 in 10.0 mi Calm Calm - N/A   Clear
6:35 PM 44.1 °F - 37.8 °F 78% 30.07 in 10.0 mi Calm Calm - N/A   Clear
6:55 PM 42.8 °F 41.1 °F 36.9 °F 80% 30.07 in 10.0 mi South 3.5 mph - N/A   Clear
7:15 PM 42.3 °F - 36.0 °F 78% 30.07 in 10.0 mi Calm Calm - N/A   Clear
7:55 PM 41.2 °F - 35.2 °F 79% 30.08 in 10.0 mi Calm Calm - N/A   Clear
8:15 PM 41.5 °F 39.6 °F 35.4 °F 79% 30.08 in 10.0 mi SSW 3.5 mph - N/A   Clear
8:35 PM 43.2 °F 41.5 °F 35.6 °F 75% 30.08 in 10.0 mi South 3.5 mph - N/A   Clear
8:55 PM 42.1 °F - 35.4 °F 77% 30.08 in 10.0 mi Calm Calm - N/A   Clear
9:15 PM 41.9 °F - 35.4 °F 78% 30.08 in 10.0 mi Calm Calm - N/A   Clear
9:35 PM 42.3 °F - 35.2 °F 76% 30.08 in 10.0 mi Calm Calm - N/A   Clear
9:55 PM 41.2 °F - 35.1 °F 79% 30.08 in 10.0 mi Calm Calm - N/A   Clear
10:15 PM 40.8 °F - 35.1 °F 80% 30.09 in 10.0 mi Calm Calm - N/A   Clear
10:35 PM 41.2 °F - 35.2 °F 79% 30.09 in 10.0 mi Calm Calm - N/A   Clear
10:55 PM 38.1 °F - 34.2 °F 86% 30.08 in 10.0 mi Calm Calm - N/A   Clear
11:15 PM 35.4 °F - 33.3 °F 92% 30.08 in 10.0 mi Calm Calm - N/A   Clear
11:35 PM 35.2 °F - 33.4 °F 93% 30.08 in 10.0 mi Calm Calm - N/A   Clear
11:55 PM 35.4 °F - 33.1 °F 91% 30.08 in 10.0 mi Calm Calm - N/A   Clear